This demonstration page uses our WeatherBlox Daily Observations layout. Learn more.

Hourly Observations for February 24, 2019

Temp ( °F °C ) Dew Point ( °F °C ) Humidity (%) Winds ( mph kmh ) Pressure ( in mb ) Visibility ( mi km ) Precip ( " mm )
12:54 am 00:54 Windy with Snow Likely 23 -5 14 -10 68 68 NW 23 37 29.99 1016 4 6.43736 0 0.0254
1:54 am 01:54 Windy with Snow Likely 22 -5.6 14 -10 71 71 NW 20 31 30.04 1017 4 6.43736 0 0.0254
2:54 am 02:54 Clear with Light Snow 22 -5.6 14 -10 71 71 NW 17 28 30.08 1019 4 6.43736 0 0.0254
3:54 am 03:54 Windy with Snow Likely 21 -6.1 14 -10 74 74 NW 21 33 30.11 1020 4 6.43736 0 0.0254
4:38 am 04:38 Windy with Snow Likely 20 -6.7 12 -11.1 71 71 NW 25 41 30.18 1022 2.5 4.02335 0 0.0254
4:49 am 04:49 Clear with Light Snow 19 -7 10 -12 68 68 NW 18 30 30.2 1023 4 6.43736 0 0.0254
4:54 am 04:54 Windy with Snow Likely 19 -7.2 11 -11.7 71 71 NW 22 35 30.16 1021 4 6.43736 0 0.0254
5:54 am 05:54 Clear 17 -8.3 9 -12.8 70 70 NW 20 31 30.21 1023 10 16.0934 0 0.0254
6:54 am 06:54 Clear 12 -11.1 5 -15 73 73 NW 16 26 30.27 1025 10 16.0934 0 0
7:54 am 07:54 Sunny 12 -11.1 3 -16.1 67 67 NW 15 24 30.32 1027 10 16.0934 0 0
8:54 am 08:54 Hazy 12 -11.1 3 -16.1 67 67 NW 17 28 30.36 1028 5 8.0467 0 0.0254
8:58 am 08:58 Sunny 13 -10.6 3 -16.1 64 64 NW 18 30 30.42 1030 10 16.0934 0 0
9:54 am 09:54 Sunny 13 -10.6 3 -16.1 64 64 NW 16 26 30.39 1029 10 16.0934 0 0
10:54 am 10:54 Sunny 15 -9.4 4 -15.6 61 61 NW 15 24 30.42 1030 10 16.0934 0 0
11:54 am 11:54 Sunny 16 -8.9 5 -15 62 62 NW 17 28 30.45 1031 8 12.87472 0 0
12:54 pm 12:54 Sunny 17 -8.3 5 -15 59 59 NW 17 28 30.45 1031 9 14.48406 0 0
1:54 pm 13:54 Sunny 18 -7.8 5 -15 57 57 NW 16 26 30.44 1031 10 16.0934 0 0
2:54 pm 14:54 Sunny 18 -7.8 5 -15 57 57 NW 14 22 30.45 1031 10 16.0934 0 0
3:54 pm 15:54 Sunny 18 -7.8 5 -15 57 57 NW 9 15 30.46 1031 10 16.0934 0 0
4:54 pm 16:54 Sunny 16 -8.9 4 -15.6 59 59 NNW 12 19 30.47 1032 10 16.0934 0 0
5:54 pm 17:54 Sunny 14 -10 4 -15.6 64 64 NNW 9 15 30.47 1032 10 16.0934 0 0
6:54 pm 18:54 Clear 11 -11.7 2 -16.7 67 67 NNW 8 13 30.49 1033 10 16.0934 0 0
7:54 pm 19:54 Clear 9 -12.8 0 -17.8 66 66 NW 7 11 30.52 1034 10 16.0934 0 0
8:54 pm 20:54 Clear 8 -13.3 -1 -18.3 66 66 NW 8 13 30.53 1034 10 16.0934 0 0
9:54 pm 21:54 Clear 3 -16.1 -4 -20 72 72 N 8 13 30.52 1034 10 16.0934 0 0
10:54 pm 22:54 Clear 3 -16.1 -3 -19.4 76 76 N 5 7 30.53 1034 10 16.0934 0 0
11:54 pm 23:54 Clear 0 -17.8 -4 -20 83 83 N 3 6 30.54 1034 10 16.0934 0 0

Powered by AerisWeather